Weather History for KEZM - April, 2013

Change the Weather History Date:

Monday, April 1, 2013

  Actual Average (WUND) Record (WUND)
Temperature  
Mean Temperature 68 °F -  
Max Temperature 80 °F - - (-1)
Min Temperature 55 °F - - (-1)
Cooling Degree Days 2    
Growing Degree Days 18 (Base 50)    
Moisture  
Dew Point 56 °F    
Average Humidity 71    
Maximum Humidity 94    
Minimum Humidity 29    
Precipitation  
Precipitation 0.00 in - - ()
Sea Level Pressure  
Sea Level Pressure 29.97 in    
Wind  
Wind Speed 5 mph (West)    
Max Wind Speed 13 mph    
Max Gust Speed 18 mph    
Visibility 10 miles    
Events Rain    
Averages and records for this station are not official NWS values.
T = Trace of Precipitation, MM = Missing Value Source: NWS Daily Summary

Daily Weather History Graph

Daily Weather History Graph

Search for Another Location

Airport or City:

Trip Planner

Search our weather history database for the weather conditions in past years. The results will help you decide how hot, cold, wet, or windy it might be!

Date:

Astronomy

Apr. 01, 2013 Rise Set
Actual Time 7:20 AM EDT 7:52 PM EDT
Civil Twilight 6:55 AM EDT 8:17 PM EDT
Nautical Twilight 6:26 AM EDT 8:46 PM EDT
Astronomical Twilight 5:57 AM EDT 9:15 PM EDT
Moon 12:44 AM EDT (4/1) 11:21 AM EDT (4/1)
Length of Visible Light 13h 21m
Length of Day
12h 32m
Waning Gibbous, 67% of the Moon is Illuminated
Apr 1
Waning Gibbous
Apr 3
Last Quarter
Apr 10
New
Apr 18
First Quarter
Apr 25
Full

Hourly Weather History & Observations

Time (EDT) Temp. Dew Point Humidity Pressure Visibility Wind Dir Wind Speed Gust Speed Precip Events Conditions
12:15 AM 62.4 °F 59.4 °F 90% 29.97 in 10.0 mi SW 4.6 mph - N/A Rain Rain
12:55 AM 61.7 °F 59.9 °F 94% 29.95 in 10.0 mi SSW 4.6 mph - N/A   Scattered Clouds
1:15 AM 61.7 °F 59.4 °F 92% 29.94 in 10.0 mi SSW 4.6 mph - N/A   Clear
1:35 AM 61.7 °F 59.2 °F 91% 29.94 in 10.0 mi SW 4.6 mph - N/A   Clear
1:55 AM 61.7 °F 59.2 °F 91% 29.94 in 10.0 mi SW 3.5 mph - N/A   Scattered Clouds
2:15 AM 61.7 °F 59.2 °F 91% 29.94 in 10.0 mi SSW 4.6 mph - N/A   Scattered Clouds
2:35 AM 62.1 °F 59.4 °F 91% 29.94 in 10.0 mi SSW 6.9 mph - N/A   Clear
2:55 AM 62.2 °F 59.7 °F 91% 29.94 in 10.0 mi SSW 5.8 mph - N/A   Scattered Clouds
3:15 AM 62.6 °F 59.9 °F 91% 29.93 in 10.0 mi SSW 6.9 mph - N/A   Overcast
3:35 AM 62.6 °F 60.1 °F 91% 29.92 in 10.0 mi SSW 3.5 mph - N/A Rain Light Rain
3:55 AM 62.2 °F 60.1 °F 93% 29.93 in 10.0 mi SSW 4.6 mph - N/A   Overcast
4:15 AM 62.6 °F 60.3 °F 92% 29.93 in 10.0 mi SW 3.5 mph - N/A   Overcast
4:35 AM 62.6 °F 60.3 °F 92% 29.93 in 10.0 mi WSW 3.5 mph - N/A   Light Drizzle
4:55 AM 62.6 °F 60.4 °F 93% 29.93 in 10.0 mi SW 4.6 mph - N/A   Overcast
5:15 AM 62.6 °F 60.3 °F 92% 29.92 in 10.0 mi SSW 3.5 mph - N/A   Overcast
5:35 AM 62.6 °F 60.3 °F 92% 29.93 in 10.0 mi SSW 3.5 mph - N/A   Overcast
5:55 AM 62.1 °F 60.1 °F 93% 29.93 in 10.0 mi Calm Calm - N/A   Overcast
6:15 AM 61.9 °F 59.9 °F 93% 29.94 in 10.0 mi Calm Calm - N/A   Overcast
6:35 AM 62.1 °F 59.9 °F 93% 29.94 in 10.0 mi SW 3.5 mph - N/A   Overcast
6:55 AM 62.6 °F 60.1 °F 91% 29.95 in 10.0 mi WSW 4.6 mph - N/A   Overcast
7:15 AM 62.2 °F 60.1 °F 93% 29.96 in 10.0 mi WSW 4.6 mph - N/A   Overcast
7:55 AM 63.0 °F 60.4 °F 91% 29.97 in 10.0 mi West 3.5 mph - N/A   Overcast
8:15 AM 63.0 °F 60.4 °F 91% 29.98 in 10.0 mi WSW 3.5 mph - N/A   Overcast
8:35 AM 63.5 °F 61.0 °F 91% 29.98 in 10.0 mi WSW 3.5 mph - N/A   Overcast
9:15 AM 64.8 °F 61.2 °F 88% 29.99 in 10.0 mi West 5.8 mph - N/A   Overcast
9:35 AM 65.3 °F 61.0 °F 86% 29.99 in 10.0 mi West 6.9 mph - N/A   Overcast
10:15 AM 66.4 °F 61.5 °F 84% 29.99 in 10.0 mi West 5.8 mph - N/A   Overcast
10:35 AM 67.3 °F 61.0 °F 80% 29.99 in 10.0 mi West 8.1 mph - N/A   Overcast
11:15 AM 70.0 °F 60.8 °F 73% 30.00 in 10.0 mi WNW 6.9 mph - N/A   Overcast
11:35 AM 68.9 °F 59.2 °F 71% 30.00 in 10.0 mi WNW 8.1 mph - N/A   Overcast
11:55 AM 71.1 °F 58.1 °F 63% 30.00 in 10.0 mi West 9.2 mph 17.3 mph N/A   Overcast
12:15 PM 70.3 °F 58.5 °F 66% 30.00 in 10.0 mi WNW 8.1 mph - N/A   Overcast
12:35 PM 71.8 °F 58.1 °F 62% 30.00 in 10.0 mi WNW 5.8 mph - N/A   Overcast
1:15 PM 73.6 °F 57.2 °F 56% 29.99 in 10.0 mi WNW 8.1 mph - N/A   Mostly Cloudy
1:35 PM 74.7 °F 56.7 °F 53% 29.99 in 10.0 mi West 10.4 mph - N/A   Scattered Clouds
2:15 PM 76.5 °F 55.9 °F 49% 29.98 in 10.0 mi West 12.7 mph 16.1 mph N/A   Mostly Cloudy
2:35 PM 76.3 °F 56.8 °F 51% 29.97 in 10.0 mi NNW 8.1 mph - N/A   Mostly Cloudy
2:55 PM 79.3 °F 55.0 °F 43% 29.96 in 10.0 mi West 6.9 mph - N/A   Overcast
3:15 PM 75.7 °F 54.9 °F 48% 29.96 in 10.0 mi NW 6.9 mph - N/A   Mostly Cloudy
3:35 PM 75.4 °F 55.6 °F 50% 29.96 in 10.0 mi WNW 4.6 mph - N/A   Mostly Cloudy
3:55 PM 77.4 °F 54.9 °F 46% 29.95 in 10.0 mi WNW 5.8 mph - N/A   Mostly Cloudy
4:15 PM 79.7 °F 53.8 °F 41% 29.94 in 10.0 mi West 9.2 mph - N/A   Mostly Cloudy
4:35 PM 80.2 °F 52.9 °F 39% 29.94 in 10.0 mi West 5.8 mph - N/A   Scattered Clouds
5:15 PM 79.5 °F 51.8 °F 38% 29.94 in 10.0 mi West 10.4 mph - N/A   Clear
5:35 PM 80.4 °F 50.7 °F 35% 29.94 in 10.0 mi West 8.1 mph 18.4 mph N/A   Scattered Clouds
5:55 PM 77.9 °F 49.6 °F 37% 29.94 in 10.0 mi West 8.1 mph - N/A   Clear
6:15 PM 79.2 °F 45.7 °F 31% 29.94 in 10.0 mi West 6.9 mph - N/A   Clear
6:35 PM 78.6 °F 43.7 °F 29% 29.94 in 10.0 mi NNW 9.2 mph - N/A   Scattered Clouds
6:55 PM 77.5 °F 46.0 °F 33% 29.95 in 10.0 mi NW 8.1 mph - N/A   Clear
7:15 PM 76.3 °F 46.6 °F 35% 29.95 in 10.0 mi WNW 4.6 mph - N/A   Clear
7:35 PM 74.8 °F 47.7 °F 38% 29.96 in 10.0 mi WNW 3.5 mph - N/A   Clear
7:55 PM 73.2 °F 47.7 °F 40% 29.96 in 10.0 mi NW 3.5 mph - N/A   Clear
8:15 PM 71.1 °F 48.7 °F 45% 29.96 in 10.0 mi Calm Calm - N/A   Clear
8:35 PM 68.2 °F 49.6 °F 51% 29.97 in 10.0 mi Calm Calm - N/A   Clear
8:55 PM 66.4 °F 50.2 °F 56% 29.98 in 10.0 mi Calm Calm - N/A   Clear
9:15 PM 65.5 °F 50.4 °F 58% 29.99 in 10.0 mi Calm Calm - N/A   Clear
9:35 PM 61.7 °F 51.1 °F 68% 30.00 in 10.0 mi Calm Calm - N/A   Clear
9:55 PM 60.8 °F 52.0 °F 73% 30.01 in 10.0 mi Calm Calm - N/A   Clear
10:15 PM 59.5 °F 53.1 °F 79% 30.02 in 10.0 mi Calm Calm - N/A   Clear
10:35 PM 59.0 °F 53.2 °F 81% 30.02 in 10.0 mi Calm Calm - N/A   Clear
10:55 PM 58.8 °F 52.3 °F 79% 30.02 in 10.0 mi Calm Calm - N/A   Clear
11:15 PM 56.1 °F 52.7 °F 88% 30.02 in 10.0 mi Calm Calm - N/A   Clear
11:35 PM 55.8 °F 52.9 °F 90% 30.03 in 10.0 mi Calm Calm - N/A   Clear
11:55 PM 56.7 °F 52.9 °F 87% 30.03 in 10.0 mi Calm Calm - N/A   Clear